VE3DVC Weather Reports


Display with metric or nautical units.
time (UTC)temp
F
wind
direction
speed
MPH
gust
MPH
rain 1hr
in
rain 24hr
in
rain mn
in
humidity
%
barometer
mb
20260905190212 76 0 0.0 3.0 0.00 0.00 0.00 77 1014.8
20260905185010 75 0 0.0 0.0 0.00 0.00 0.00 77 1015.0
20260905183811 75 0 0.0 0.0 0.00 0.00 0.00 69 1015.0
20260905182611 76 0 0.0 0.0 0.00 0.00 0.00 70 1015.0
20260905180335 75 0 0.0 3.0 0.00 0.00 0.00 70 1015.2
20260905175136 74 0 0.0 2.0 0.00 0.00 0.00 68 1015.1
20260905171640 72 0 0.0 0.0 0.00 0.00 0.00 77 1015.2
20260905170440 72 0 0.0 0.0 0.00 0.00 0.00 74 1015.4
20260905165242 72 0 0.0 0.0 0.00 0.00 0.00 76 1015.3
20260905164040 72 0 0.0 2.0 0.00 0.00 0.00 72 1015.3
20260905162840 72 0 0.0 1.0 0.00 0.00 0.00 74 1015.3
20260905161641 72 0 0.0 1.0 0.00 0.00 0.00 77 1015.3
20260905160440 71 0 0.0 1.0 0.00 0.00 0.00 77 1015.3
20260905155241 71 0 0.0 2.0 0.00 0.00 0.00 81 1015.3
20260905154040 70 0 0.0 1.0 0.00 0.00 0.00 79 1015.4
20260905152840 70 0 0.0 1.0 0.00 0.00 0.00 79 1015.4
20260905150647 69 0 0.0 2.0 0.00 0.00 0.00 82 1015.3
20260905145448 68 0 0.0 0.0 0.00 0.00 0.00 83 1015.2
20260905144248 68 0 0.0 1.0 0.00 0.00 0.00 83 1015.3
20260905143047 68 0 0.0 1.0 0.00 0.00 0.00 86 1015.2
20260905141848 67 0 0.0 1.0 0.00 0.00 0.00 87 1015.2
20260905140647 67 0 0.0 3.0 0.00 0.00 0.00 88 1015.1
20260905135447 65 0 0.0 1.0 0.00 0.00 0.00 92 1015.1
20260905134247 65 0 0.0 1.0 0.00 0.00 0.00 93 1015.1
20260905133048 64 0 0.0 1.0 0.00 0.00 0.00 93 1015.2
20260905131848 64 0 0.0 0.0 0.00 0.00 0.00 92 1015.3
20260905130647 63 0 0.0 0.0 0.00 0.00 0.00 93 1015.3
20260905125447 63 0 0.0 0.0 0.00 0.00 0.00 93 1015.4
20260905124248 63 0 0.0 0.0 0.00 0.00 0.00 93 1015.4
20260905123047 62 0 0.0 0.0 0.00 0.00 0.00 93 1015.3
20260905121848 62 0 0.0 0.0 0.00 0.00 0.00 93 1015.4
20260905120647 61 0 0.0 0.0 0.00 0.00 0.00 93 1015.4
20260905115447 61 0 0.0 0.0 0.00 0.00 0.00 93 1015.3
20260905114247 61 0 0.0 0.0 0.00 0.00 0.00 93 1015.3
20260905113048 61 0 0.0 0.0 0.00 0.00 0.00 93 1015.3
20260905111847 61 0 0.0 0.0 0.00 0.00 0.00 93 1015.2
20260905104412 61 0 0.0 0.0 0.00 0.00 0.00 93 1014.9
20260905103213 62 0 0.0 0.0 0.00 0.00 0.00 93 1014.6
20260905102012 62 0 0.0 0.0 0.00 0.00 0.00 92 1014.4
20260905100812 62 0 0.0 0.0 0.00 0.00 0.00 92 1014.3
20260905095612 63 0 0.0 0.0 0.00 0.00 0.00 92 1014.1
20260905094412 63 0 0.0 0.0 0.00 0.00 0.00 92 1014.2
20260905093212 64 0 0.0 0.0 0.00 0.00 0.00 92 1014.2
20260905092013 64 0 0.0 0.0 0.00 0.00 0.00 92 1014.3
20260905090241 64 0 0.0 0.0 0.00 0.00 0.00 91 1014.5
20260905085042 65 0 0.0 0.0 0.00 0.00 0.00 91 1014.6
20260905083813 65 0 0.0 0.0 0.00 0.00 0.00 91 1014.5
20260905082613 65 0 0.0 0.0 0.00 0.00 0.00 91 1014.3
20260905081413 65 0 0.0 0.0 0.00 0.00 0.00 91 1014.0
20260905080213 65 0 0.0 0.0 0.00 0.00 0.00 91 1014.0
20260905075013 65 0 0.0 0.0 0.00 0.00 0.00 91 1013.8
20260905073813 65 0 0.0 0.0 0.00 0.00 0.00 91 1013.8
20260905072612 65 0 0.0 0.0 0.00 0.00 0.00 91 1013.9
20260905071214 65 0 0.0 0.0 0.00 0.00 0.00 91 1014.0
20260905070014 65 0 0.0 0.0 0.00 0.00 0.00 91 1014.1
20260905064814 66 0 0.0 0.0 0.00 0.00 0.00 92 1014.3
20260905063614 66 0 0.0 0.0 0.00 0.00 0.00 91 1014.3
20260905062414 66 0 0.0 0.0 0.00 0.00 0.00 92 1014.3
20260905061214 66 0 0.0 0.0 0.00 0.00 0.00 93 1014.2
20260905060014 66 0 0.0 0.0 0.00 0.00 0.00 93 1014.3
20260905053614 67 0 0.0 0.0 0.00 0.00 0.00 93 1014.5
20260905052415 67 0 0.0 0.0 0.00 0.00 0.00 93 1014.6
20260905051214 67 0 0.0 0.0 0.00 0.00 0.00 93 1014.6
20260905050014 67 0 0.0 0.0 0.00 0.00 0.00 93 1014.6
20260905044814 68 0 0.0 0.0 0.00 0.00 0.00 92 1014.6
20260905043614 68 0 0.0 0.0 0.00 0.00 0.00 92 1014.6
20260905042415 68 0 0.0 0.0 0.00 0.00 0.00 92 1014.7
20260905041213 68 0 0.0 0.0 0.00 0.00 0.00 92 1014.6
20260905040014 68 0 0.0 0.0 0.00 0.00 0.00 92 1014.6
20260905034814 68 0 0.0 0.0 0.00 0.00 0.00 92 1014.7
20260905033614 69 0 0.0 0.0 0.00 0.00 0.00 92 1014.8
20260905032415 69 0 0.0 0.0 0.00 0.00 0.00 92 1014.6
20260905031214 69 0 0.0 0.0 0.00 0.00 0.00 92 1014.5
20260905030014 69 0 0.0 0.0 0.00 0.00 0.00 92 1014.7
20260905024814 69 0 0.0 0.0 0.00 0.00 0.00 92 1014.7
20260905023616 69 0 0.0 0.0 0.00 0.00 0.00 92 1014.7
20260905022414 69 0 0.0 0.0 0.00 0.00 0.00 92 1014.8
20260905021215 69 0 0.0 0.0 0.00 0.00 0.00 93 1014.8
20260905020014 69 0 0.0 0.0 0.00 0.00 0.00 93 1014.8
20260905014814 70 0 0.0 0.0 0.00 0.00 0.00 93 1014.7
20260905013614 70 0 0.0 0.0 0.00 0.00 0.00 92 1014.7
20260905012415 70 0 0.0 0.0 0.00 0.00 0.00 93 1014.6
20260905011214 70 0 0.0 0.0 0.00 0.00 0.00 93 1014.6
20260905010014 70 0 0.0 0.0 0.00 0.00 0.00 93 1014.6
20260905004814 70 0 0.0 0.0 0.00 0.00 0.00 92 1014.5
20260905003615 70 0 0.0 0.0 0.00 0.00 0.00 92 1014.4
20260905002414 70 0 0.0 0.0 0.00 0.00 0.00 92 1014.4
20260905001214 70 0 0.0 0.0 0.00 0.00 0.00 92 1014.5
20260905000015 71 0 0.0 0.0 0.00 0.00 0.00 92 1014.5
20260904234814 71 0 0.0 0.0 0.00 0.00 0.00 92 1014.5
20260904233614 71 0 0.0 0.0 0.00 0.00 0.00 92 1014.5
20260904232414 71 0 0.0 0.0 0.00 0.00 0.00 92 1014.5
20260904231213 72 0 0.0 0.0 0.00 0.00 0.00 92 1014.3
20260904225858 72 0 0.0 0.0 0.00 0.00 0.00 92 1014.1
20260904224658 72 0 0.0 0.0 0.00 0.00 0.00 92 1014.1
20260904223457 72 0 0.0 0.0 0.00 0.00 0.00 92 1014.0
20260904222257 72 0 0.0 0.0 0.00 0.00 0.00 91 1013.9
20260904221057 72 0 0.0 0.0 0.00 0.00 0.00 91 1013.8
20260904215857 72 0 0.0 0.0 0.00 0.00 0.00 91 1013.7
20260904214658 73 0 0.0 0.0 0.00 0.00 0.00 90 1013.6
20260904213457 73 0 0.0 0.0 0.00 0.00 0.00 90 1013.5
20260904212257 73 0 0.0 0.0 0.00 0.00 0.00 89 1013.4
20260904211058 73 0 0.0 0.0 0.00 0.00 0.00 89 1013.2
20260904205857 73 0 0.0 1.0 0.00 0.00 0.00 90 1013.2
20260904204657 73 0 0.0 0.0 0.00 0.00 0.00 89 1013.1
20260904203457 74 0 0.0 1.0 0.00 0.00 0.00 89 1013.4
20260904202257 74 0 0.0 0.0 0.00 0.00 0.00 88 1013.6
20260904200506 75 0 0.0 0.0 0.00 0.00 0.00 87 1013.9
20260904195307 74 0 0.0 0.0 0.00 0.00 0.00 87 1014.1
20260904194107 74 0 0.0 1.0 0.00 0.00 0.00 86 1014.2
20260904192907 74 0 0.0 0.0 0.00 0.00 0.00 89 1014.3
20260904191706 74 0 0.0 0.0 0.00 0.00 0.00 88 1014.6